Location: B
(0.0000°N, 0.0000°E)
Time: 11:52:21
(UTC+01:00)

Daily predictions for brighter satellites

Satellite Brightness Start Highest point End
(mag) Time Altitude Azimuth Time Altitude Azimuth Time Altitude Azimuth
BREEZE-M DEB (TANK) 3.6 19:28:21 10° NW 19:30:55 67° SW 19:36:29 10° SSE
Delta 2 Rocket 3.0 19:33:39 10° WSW 19:36:57 64° NW 19:40:18 10° NE
Nadezhda 4 Rocket 4.1 19:37:22 10° S 19:43:25 57° E 19:49:28 10° NNE
Cosmos 1626 2.1 19:40:40 10° S 19:44:23 69° E 19:48:05 10° N
Tiangong 1 1.4 19:43:23 10° SW 19:46:19 56° NW 19:49:13 10° NE
Cosmos 2279 Rocket 4.3 19:40:46 10° NNE 19:46:38 45° E 19:52:33 10° SSE
USA 229 DEB 3.9 19:47:42 10° SSW 19:54:32 77° WNW 20:01:21 10° NNE
USA 229 3.9 19:47:47 10° SSW 19:54:39 78° WNW 20:01:28 10° NNE
Cosmos 1666 Rocket 3.5 19:52:04 10° S 19:56:23 89° W 20:00:41 10° N
Cosmos 1092 Rocket 4.1 19:53:17 10° S 19:59:23 55° E 20:05:31 10° NNE
Cosmos 1933 Rocket 4.2 20:03:59 10° SSE 20:07:59 34° E 20:10:37 18° NE
Cosmos 1707 Rocket 4.4 20:05:08 12° NNE 20:08:22 28° E 20:12:06 10° SE
HJ-1C 4.1 20:05:27 10° SE 20:08:36 33° E 20:11:12 13° NNE
NOSS 3-1 (A) 4.3 20:04:38 10° S 20:09:16 26° ESE 20:11:30 20° E
Cosmos 1125 Rocket 3.8 20:06:44 10° N 20:11:37 43° ENE 20:16:32 10° SSE
Ariane H10-3 3.3 20:08:27 10° WSW 20:11:41 55° S 20:25:03 10° E
Cosmos 923 Rocket 3.9 20:07:35 10° S 20:12:51 74° ESE 20:18:02 10° NNE
Cosmos 1943 4.2 20:08:30 10° SSE 20:13:09 26° ESE 20:14:59 22° ENE
Helios 1B rocket 2.6 20:09:57 10° N 20:14:02 73° WNW 20:18:09 10° SSW
Cosmos 1300 3.9 20:11:41 10° NNW 20:15:20 44° W 20:19:01 10° SSW
H-2A R/B 4.2 20:13:40 10° SE 20:15:37 20° ESE 20:15:37 20° ESE
FALCON 9 R/B 3.6 20:05:48 10° WNW 20:18:08 48° SW 20:22:09 10° SSE
SJ-6B 3.0 20:15:53 10° S 20:19:45 75° WSW 20:23:43 10° NNW
Cosmos 1680 Rocket 3.4 20:16:49 10° S 20:21:58 66° ESE 20:25:38 19° NNE
Cosmos 1844 Rocket 2.8 20:17:59 10° NNW 20:23:36 77° WSW 20:29:11 10° S
ALOS 2.3 20:19:47 10° SSE 20:24:21 53° ENE 20:28:53 10° N
Cosmos 1726 4.2 20:21:08 10° NNW 20:24:26 29° W 20:27:46 10° SSW
Aurora 2 Rocket 4.0 20:18:18 10° WSW 20:25:10 84° SSE 20:30:54 27° ENE
ARIANE 5 DEB (SYLDA) 4.4 20:10:58 10° W 20:27:19 55° N 20:29:33 31° NE
FENGYUN 3A 3.7 20:22:34 10° SSE 20:27:48 55° ENE 20:33:00 10° N
Cosmos 1470 Rocket 3.4 20:24:23 10° S 20:28:50 81° E 20:31:56 19° N
Cosmos 2195 Rocket 4.4 20:22:56 10° S 20:28:59 63° E 20:34:07 15° NNE
Cosmos 1655 Rocket 4.3 20:25:05 10° SSE 20:31:09 45° E 20:34:10 27° NE
Genesis I 3.9 20:27:44 10° S 20:31:09 35° ESE 20:31:09 35° ESE
Cosmos 1603 4.1 20:27:49 10° SSW 20:33:25 63° WNW 20:38:37 12° N
Cosmos 292 Rocket 4.2 20:33:42 10° SSW 20:38:26 62° WNW 20:41:50 18° N
Iridium 4 Rocket 4.2 20:35:28 10° S 20:40:45 55° W 20:45:33 10° NNW
SAR-Lupe-4 3.9 20:39:50 10° SSE 20:42:35 50° SSE 20:42:35 50° SSE
Meteor 2-20 4.3 20:38:02 10° S 20:44:03 67° E 20:47:00 31° NNE
Ariane 42L R/B 3.3 20:44:32 10° WSW 20:45:49 27° SW 20:45:49 27° SW
Maqsat-B 3.4 20:42:57 10° WSW 20:49:07 44° S 20:49:56 38° SE
NOSS 3-1 (C) 3.3 20:44:53 10° SSW 20:50:31 75° WNW 20:52:46 38° N
Intelsat 5-3 Rocket 4.1 20:39:15 10° SW 20:50:59 45° SSE 20:52:55 34° ESE
Skynet4D Del rocket 4.3 20:49:01 10° WNW 20:55:46 79° SSW 21:00:13 27° SE
Cosmos 2112 Rocket 4.5 20:51:14 10° SSW 20:56:19 58° WNW 20:58:41 30° NNW
Resurs 01 Rocket 2.6 20:58:45 10° S 21:03:01 46° WSW 21:07:16 10° NNW
Ariane H10-3 3.8 21:04:17 10° W 21:04:54 18° W 21:04:54 18° W
Cosmos 2278 Rocket 2.2 21:01:17 10° NNW 21:06:56 78° WSW 21:12:36 10° S
H-II Stage 2 2.8 21:08:28 10° WSW 21:16:02 56° SW 21:16:02 56° SW
Centaur D-1AR AC-48 4.5 21:19:03 10° S 21:20:37 13° SSE 21:20:37 13° SSE
BLOCK DM-SL R/B 4.2 21:27:13 10° W 21:29:22 35° W 21:29:22 35° W
USA 234 3.9 21:56:51 49° SW 21:56:51 49° SW 22:01:26 10° SW
ATLAS 2AS CENTAUR R/B 4.2 22:00:05 10° SSW 22:02:42 26° S 22:02:42 26° S
